Total_Precipitation_Accumulation
0.14 0.40 0.94 1.32 1.88 2.25 2.01 1.41 1.08 0.77 0.62 0.63 0.52 0.52 0.66 1.01 1.53 2.73 3.10 2.53 1.87 1.75 1.97 2.14 2.17 2.12 2.06 2.07 2.43 2.61 2.47 2.45 2.54 2.72 2.73 2.79 2.78 2.68 2.62 2.60 2.70 2.94 3.01 3.03 3.27 3.48 3.56 3.46 3.53
0.27 0.64 1.12 1.60 2.09 2.26 1.86 1.19 0.83 0.68 0.56 0.57 0.51 0.53 0.77 0.93 1.03 1.81 2.36 2.09 1.51 1.42 1.60 1.79 1.96 1.90 1.81 1.86 2.00 2.24 2.26 2.24 2.46 2.80 2.94 2.97 2.87 2.73 2.70 2.64 2.80 3.07 3.21 3.30 3.38 3.37 3.41 3.27 3.17
0.44 0.71 1.22 1.69 1.77 1.70 1.47 1.00 0.71 0.58 0.59 0.72 0.70 0.62 0.98 1.18 1.15 1.72 2.08 1.53 1.29 1.30 1.52 1.75 1.74 1.61 1.53 1.54 1.64 1.94 2.12 2.22 2.44 2.66 2.85 2.94 2.85 2.81 2.74 2.71 2.88 3.13 3.48 3.58 3.44 3.23 3.02 2.95 2.89
0.51 0.82 1.12 1.29 1.15 0.90 0.86 0.74 0.59 0.54 0.57 0.67 0.76 0.88 1.22 1.20 1.14 1.47 1.63 1.27 1.18 1.19 1.23 1.34 1.47 1.39 1.41 1.48 1.54 1.70 1.89 2.10 2.45 2.70 2.83 2.92 2.91 2.87 2.82 2.82 2.96 3.26 3.60 3.60 3.40 3.14 2.80 2.62 2.42
0.60 1.01 1.15 1.04 0.88 0.75 0.63 0.57 0.51 0.59 0.66 0.70 0.74 1.09 1.50 1.39 1.15 1.23 1.28 1.09 0.93 0.93 0.93 1.00 1.16 1.20 1.33 1.42 1.52 1.63 1.88 2.04 2.27 2.66 3.00 3.08 3.00 3.05 2.99 2.96 3.14 3.30 3.41 3.32 3.17 2.83 2.59 2.43 2.34
0.77 0.84 0.87 0.89 0.80 0.67 0.55 0.44 0.41 0.55 0.69 0.80 0.86 1.15 1.79 1.71 1.30 1.17 0.97 0.89 0.76 0.74 0.88 1.00 1.12 1.20 1.26 1.25 1.43 1.65 1.92 2.12 2.36 2.59 2.76 2.88 2.88 2.94 3.04 3.09 3.26 3.24 3.18 2.99 2.81 2.55 2.45 2.36 2.32
0.76 0.69 0.58 0.62 0.67 0.58 0.49 0.41 0.39 0.48 0.65 0.81 0.85 1.30 1.93 2.07 1.55 1.16 0.99 0.95 0.96 0.93 1.05 1.19 1.27 1.30 1.41 1.51 1.68 1.89 2.08 2.39 2.58 2.60 2.58 2.68 2.74 2.74 2.82 2.97 3.14 3.19 3.01 2.70 2.63 2.54 2.49 2.38 2.31
0.51 0.49 0.43 0.42 0.49 0.56 0.44 0.35 0.37 0.50 0.56 0.63 0.78 1.26 1.80 1.83 1.56 1.37 1.46 1.43 1.50 1.35 1.26 1.31 1.44 1.53 1.50 1.69 2.07 2.34 2.46 2.52 2.54 2.46 2.47 2.60 2.75 2.82 2.93 2.96 3.19 3.33 3.12 2.74 2.80 2.74 2.60 2.51 2.50
0.33 0.53 0.46 0.34 0.33 0.37 0.31 0.36 0.38 0.37 0.42 0.57 0.78 1.07 1.38 1.38 1.39 1.62 1.94 1.86 1.93 1.75 1.48 1.36 1.26 1.42 1.57 1.66 1.86 2.24 2.43 2.48 2.59 2.74 2.76 2.93 3.11 3.06 3.37 3.35 3.65 3.68 3.39 3.16 3.17 3.02 2.99 2.77 2.73
0.28 0.42 0.29 0.19 0.17 0.19 0.24 0.33 0.37 0.44 0.66 0.97 1.17 1.30 1.54 1.79 1.75 1.84 1.90 1.84 1.88 1.87 1.70 1.56 1.51 1.49 1.60 1.60 1.91 2.39 2.31 2.48 2.74 3.11 3.26 3.45 3.60 3.55 3.16 3.75 4.27 4.19 4.00 3.82 3.81 3.65 3.35 2.88 2.79
0.15 0.18 0.14 0.14 0.13 0.14 0.21 0.26 0.33 0.51 0.93 1.30 1.56 1.67 1.79 2.07 2.24 2.20 2.24 2.25 2.16 2.11 1.91 1.70 1.69 1.76 1.74 1.93 1.99 2.31 2.59 2.87 3.00 3.11 3.27 3.50 3.41 3.28 3.30 3.86 4.24 4.26 4.12 4.20 4.37 4.13 3.56 3.42 3.47
0.06 0.05 0.07 0.10 0.10 0.13 0.21 0.28 0.41 0.69 1.15 1.30 1.53 1.70 1.75 2.17 2.29 2.26 2.69 2.81 2.41 2.16 2.17 2.06 2.01 2.03 2.07 1.99 2.24 2.30 2.40 2.63 2.94 3.15 3.12 3.30 3.67 3.70 3.70 3.96 3.92 4.03 4.12 4.63 4.51 4.52 4.18 3.79 3.48
0.04 0.05 0.06 0.08 0.09 0.11 0.19 0.28 0.41 0.66 0.89 1.02 1.22 1.41 1.44 1.96 2.31 2.56 3.04 2.99 2.69 2.55 2.52 2.36 2.30 2.41 2.39 2.44 2.57 2.39 2.56 2.71 2.87 3.06 3.18 3.20 3.52 3.76 3.91 4.02 4.04 3.65 3.61 4.07 4.50 4.32 4.30 4.22 3.98
0.05 0.06 0.09 0.09 0.11 0.13 0.15 0.26 0.46 0.76 0.84 1.06 1.08 1.26 1.49 1.90 2.21 2.63 2.94 3.15 3.00 2.80 2.70 2.55 2.56 2.70 2.76 2.80 2.97 2.96 2.81 2.96 2.85 3.08 3.12 3.18 3.35 3.64 3.96 4.10 4.16 3.77 3.58 3.87 4.21 4.12 4.34 4.18 4.15
0.06 0.11 0.16 0.14 0.15 0.16 0.19 0.46 0.77 0.89 0.93 1.10 1.26 1.38 1.61 1.99 2.48 2.74 2.96 3.23 3.24 3.19 3.06 2.89 2.85 3.02 3.27 3.45 3.48 3.38 3.18 2.92 2.92 3.07 3.08 3.18 3.25 3.63 3.73 3.81 3.92 3.88 3.67 3.85 4.05 4.10 4.24 4.03 3.83
0.10 0.15 0.23 0.23 0.19 0.19 0.33 0.85 0.96 0.85 1.02 1.25 1.34 1.56 1.87 2.29 2.70 3.15 3.28 3.19 3.20 3.33 3.31 3.09 2.88 3.31 3.72 3.88 3.93 3.71 3.44 3.07 3.04 3.09 3.16 3.28 3.41 3.60 3.84 3.64 3.68 4.04 3.89 4.04 4.42 4.36 4.43 4.54 4.37
0.14 0.23 0.24 0.29 0.24 0.24 0.42 0.93 0.89 0.73 0.92 1.15 1.34 1.55 1.98 2.51 2.84 2.98 3.03 3.22 3.34 3.42 3.40 3.38 3.50 3.64 3.81 3.94 4.10 3.87 3.66 3.45 3.22 3.14 3.15 3.31 3.45 3.57 3.98 4.05 4.17 4.13 4.08 4.18 3.84 4.42 4.72 4.80 4.62
0.17 0.18 0.25 0.29 0.26 0.32 0.43 0.69 0.76 0.80 1.05 1.17 1.45 1.65 1.81 2.21 2.65 2.75 2.86 3.29 3.36 3.53 3.66 3.63 3.77 3.97 4.28 4.48 4.71 4.36 4.00 3.73 3.47 3.30 3.38 3.42 3.63 3.75 4.12 4.21 4.23 4.05 4.19 4.25 4.28 4.70 4.68 4.38 4.38
0.07 0.15 0.28 0.29 0.29 0.38 0.47 0.66 0.84 0.93 1.18 1.51 1.74 1.70 1.66 1.98 2.45 2.82 3.13 3.21 3.53 3.73 3.90 3.93 4.19 4.64 5.01 4.85 4.56 4.44 4.23 4.00 3.77 3.51 3.43 3.48 3.45 3.64 4.06 3.97 4.34 4.23 4.09 4.04 4.07 4.46 4.54 4.21 4.36
0.05 0.12 0.24 0.30 0.29 0.44 0.61 0.81 0.93 1.13 1.41 1.55 1.47 1.45 1.60 1.99 2.49 2.87 3.14 3.23 3.48 3.76 4.19 4.33 4.55 4.95 5.12 4.98 4.86 4.74 4.64 4.26 4.15 4.00 3.87 3.46 3.26 3.39 3.45 3.87 3.73 3.84 4.06 4.00 4.16 4.46 4.32 3.97 4.42
0.06 0.13 0.21 0.26 0.36 0.55 0.72 1.16 1.26 1.39 1.55 1.57 1.50 1.68 1.69 1.75 2.17 2.46 2.57 2.72 2.89 3.04 3.31 3.61 4.14 4.69 4.91 4.99 4.89 4.86 4.92 4.48 4.23 4.11 3.95 3.54 3.26 3.16 3.30 3.51 3.64 3.80 3.72 3.89 4.06 4.09 4.19 4.16 4.30
0.08 0.11 0.12 0.18 0.34 0.65 0.79 1.51 1.65 1.76 1.92 1.78 1.67 1.60 1.59 1.80 2.11 2.12 1.95 2.08 2.33 2.32 2.64 3.08 3.59 3.98 4.22 4.32 4.32 4.39 4.38 4.31 4.23 4.13 3.74 3.52 3.26 3.14 3.20 3.33 3.45 3.58 3.43 3.67 3.45 3.53 4.05 4.26 4.11
0.07 0.10 0.14 0.20 0.35 0.64 0.71 1.15 1.71 1.99 2.18 1.79 1.64 1.50 1.57 1.78 1.79 1.75 1.77 1.87 2.02 2.17 2.49 2.81 3.18 3.50 3.67 3.77 3.87 4.00 3.89 3.94 3.84 3.74 3.56 3.35 3.19 3.04 2.81 2.94 3.20 3.32 3.23 3.24 3.32 3.58 3.67 3.64 3.70
0.07 0.14 0.23 0.33 0.55 1.01 0.88 1.00 1.58 1.96 1.77 1.52 1.43 1.22 1.34 1.51 1.60 1.65 1.75 1.87 2.00 2.29 2.64 2.90 3.17 3.42 3.49 3.28 3.19 3.26 3.32 3.40 3.38 3.23 3.08 2.86 2.83 2.77 2.61 2.66 2.94 3.05 3.05 3.08 3.09 3.24 3.33 3.40 3.46
0.11 0.25 0.75 1.19 1.51 1.42 0.90 1.02 1.66 1.52 1.20 1.11 1.17 1.16 1.15 1.18 1.31 1.44 1.63 1.83 2.06 2.18 2.22 2.63 3.07 3.26 3.16 2.92 2.75 2.71 2.87 3.00 2.95 2.83 2.79 2.71 2.58 2.53 2.56 2.59 2.74 2.77 2.76 2.72 2.82 2.96 3.02 3.22 3.37
0.16 0.28 0.80 1.12 1.23 1.21 0.99 1.42 1.96 1.50 1.05 0.90 1.00 0.99 0.89 0.82 0.79 0.88 1.07 1.20 1.34 1.38 1.40 1.58 1.86 2.09 2.17 2.09 2.15 2.25 2.33 2.41 2.42 2.63 2.49 2.48 2.41 2.29 2.38 2.36 2.38 2.42 2.43 2.40 2.79 2.85 2.95 3.16 3.25
0.26 0.31 0.34 0.58 0.81 1.22 1.27 1.49 1.64 1.34 1.03 0.98 1.07 1.01 0.80 0.74 0.69 0.77 0.90 0.95 1.03 1.06 1.10 1.23 1.49 1.76 1.80 1.80 1.90 1.99 2.05 2.13 2.16 2.22 2.18 2.14 2.20 2.14 2.16 2.18 2.34 2.35 2.41 2.56 2.78 2.82 2.92 3.18 3.16
0.23 0.31 0.48 0.76 1.02 1.21 1.33 1.72 1.93 1.71 1.40 1.21 1.20 1.10 0.83 0.72 0.69 0.75 0.87 0.91 1.02 1.12 1.28 1.40 1.52 1.66 1.67 1.65 1.68 1.67 1.85 1.92 1.95 1.94 1.87 1.90 1.97 1.95 1.98 2.06 2.17 2.28 2.37 2.50 2.73 2.74 2.86 2.97 2.96
0.26 0.35 0.51 0.70 0.76 1.01 1.44 1.63 1.41 1.33 1.32 1.45 1.34 1.13 0.86 0.71 0.67 0.73 0.86 0.97 1.08 1.18 1.27 1.41 1.53 1.67 1.66 1.57 1.63 1.77 1.91 2.00 1.88 1.79 1.68 1.76 1.86 1.91 1.92 2.02 2.16 2.23 2.32 2.52 2.67 2.63 2.77 2.75 2.69
0.25 0.36 0.52 0.78 0.83 0.86 1.06 1.27 0.92 0.94 1.05 1.15 1.15 0.94 0.77 0.72 0.71 0.76 0.88 0.99 1.20 1.26 1.28 1.32 1.45 1.62 1.65 1.64 1.75 2.00 2.03 2.03 1.92 1.74 1.66 1.74 1.82 1.85 1.85 1.98 2.12 2.12 2.30 2.53 2.62 2.58 2.74 2.79 2.70